DHK057 EDDP-EGNX

Flight info

Callsign DHK057
Flight time 1h 30m
Altitude 36000
Route ORTAG Q230 KUMER T811 LUXUX DCT HMM DCT MEVEL DCT NAPRO DCT ABNED L980 LAM L610 HEMEL
Aircraft B77L/H-SDE1E2E3FGHIJ2J3J4J5M1RWXY/LB1D1

Departure

Time 2026-05-05 16:55
Airport Leipzig/Halle Airport (EDDP)

Arrival

Time 2026-05-05 18:25
Airport East Midlands Airport (EGNX)
Time Latitude Longitude Altitude Speed Heading
2026-05-05 16:13 51.40995 12.24509 473 ft 0 kts 265°
2026-05-05 16:39 51.40996 12.24529 468 ft 4 kts 265°
2026-05-05 16:39 51.40998 12.24572 470 ft 4 kts 266°
2026-05-05 16:39 51.40999 12.24614 468 ft 4 kts 272°
2026-05-05 16:40 51.40996 12.24642 466 ft 2 kts 302°
2026-05-05 16:40 51.40989 12.24655 467 ft 2 kts 344°
2026-05-05 16:40 51.40978 12.24658 466 ft 2 kts 354°
2026-05-05 16:40 51.40972 12.24659 467 ft 0 kts 355°
2026-05-05 16:45 51.40977 12.24658 466 ft 3 kts 355°
2026-05-05 16:45 51.41006 12.24654 467 ft 4 kts 355°
2026-05-05 16:45 51.41038 12.24650 471 ft 5 kts 356°
2026-05-05 16:45 51.41080 12.24632 469 ft 7 kts 322°
2026-05-05 16:46 51.41115 12.24584 470 ft 7 kts 343°
2026-05-05 16:46 51.41160 12.24565 472 ft 7 kts 318°
2026-05-05 16:46 51.41176 12.24494 471 ft 7 kts 274°
2026-05-05 16:46 51.41174 12.24413 470 ft 8 kts 266°
2026-05-05 16:47 51.41171 12.24313 471 ft 10 kts 266°
2026-05-05 16:47 51.41165 12.24186 474 ft 12 kts 265°
2026-05-05 16:47 51.41158 12.24054 474 ft 12 kts 266°
2026-05-05 16:47 51.41152 12.23921 474 ft 12 kts 265°
2026-05-05 16:48 51.41146 12.23788 471 ft 12 kts 266°
2026-05-05 16:48 51.41140 12.23655 478 ft 12 kts 265°
2026-05-05 16:48 51.41133 12.23522 474 ft 12 kts 265°
2026-05-05 16:48 51.41127 12.23388 479 ft 13 kts 265°
2026-05-05 16:49 51.41120 12.23235 474 ft 15 kts 265°
2026-05-05 16:49 51.41112 12.23061 475 ft 16 kts 266°
2026-05-05 16:49 51.41103 12.22868 467 ft 19 kts 266°
2026-05-05 16:49 51.41093 12.22650 466 ft 21 kts 266°
2026-05-05 16:50 51.41082 12.22427 464 ft 17 kts 265°
2026-05-05 16:50 51.41073 12.22244 464 ft 16 kts 265°
2026-05-05 16:50 51.41065 12.22064 464 ft 16 kts 265°
2026-05-05 16:50 51.41057 12.21883 464 ft 16 kts 265°
2026-05-05 16:51 51.41048 12.21702 464 ft 16 kts 265°
2026-05-05 16:51 51.41039 12.21507 459 ft 19 kts 265°
2026-05-05 16:51 51.41028 12.21282 456 ft 20 kts 265°
2026-05-05 16:51 51.41018 12.21071 451 ft 19 kts 265°
2026-05-05 16:52 51.41008 12.20858 445 ft 16 kts 266°
2026-05-05 16:52 51.41001 12.20712 430 ft 12 kts 265°
2026-05-05 16:52 51.40995 12.20581 433 ft 10 kts 265°
2026-05-05 16:52 51.41010 12.20501 432 ft 8 kts 322°
2026-05-05 16:53 51.41066 12.20493 430 ft 8 kts 11°
2026-05-05 16:53 51.41119 12.20513 437 ft 6 kts 14°
2026-05-05 16:53 51.41158 12.20536 436 ft 6 kts 39°
2026-05-05 16:53 51.41166 12.20600 432 ft 6 kts 85°
2026-05-05 16:54 51.41173 12.20724 433 ft 33 kts 85°
2026-05-05 16:54 51.41211 12.21522 458 ft 108 kts 86°
2026-05-05 16:54 51.41284 12.23066 472 ft 166 kts 83°
2026-05-05 16:54 51.41385 12.24956 1013 ft 171 kts 84°
2026-05-05 16:55 51.41470 12.26893 1680 ft 176 kts 83°
2026-05-05 16:55 51.41567 12.28851 2419 ft 180 kts 83°
2026-05-05 16:55 51.41682 12.30980 2764 ft 206 kts 83°
2026-05-05 16:55 51.41820 12.33427 3040 ft 236 kts 83°
2026-05-05 16:56 51.41974 12.36134 3617 ft 250 kts 83°
2026-05-05 16:56 51.42479 12.38828 4243 ft 260 kts 58°
2026-05-05 16:56 51.43728 12.40947 5031 ft 266 kts 34°
2026-05-05 16:56 51.45380 12.42364 5803 ft 274 kts 18°
2026-05-05 16:57 51.47274 12.42554 6571 ft 276 kts 347°
2026-05-05 16:57 51.49135 12.41705 7317 ft 282 kts 340°
2026-05-05 16:57 51.51023 12.40738 8172 ft 286 kts 341°
2026-05-05 16:57 51.52943 12.39835 9090 ft 289 kts 342°
2026-05-05 16:58 51.54879 12.38925 9893 ft 290 kts 336°
2026-05-05 16:58 51.56578 12.37138 10315 ft 302 kts 309°
2026-05-05 16:58 51.57623 12.34121 10515 ft 320 kts 287°
2026-05-05 16:58 51.58343 12.30574 10718 ft 348 kts 286°
2026-05-05 16:59 51.59139 12.26775 11200 ft 366 kts 287°
2026-05-05 16:59 51.59982 12.22855 12034 ft 372 kts 289°
2026-05-05 16:59 51.61245 12.19200 12765 ft 385 kts 308°
2026-05-05 16:59 51.63308 12.16395 13726 ft 391 kts 326°
2026-05-05 17:00 51.65663 12.14118 14513 ft 399 kts 327°
2026-05-05 17:00 51.67976 12.11656 15269 ft 398 kts 317°
2026-05-05 17:00 51.69672 12.08165 15941 ft 400 kts 293°
2026-05-05 17:00 51.70505 12.03912 16912 ft 398 kts 277°
2026-05-05 17:01 51.70604 11.99472 17839 ft 397 kts 265°
2026-05-05 17:01 51.70388 11.95062 18517 ft 403 kts 263°
2026-05-05 17:01 51.70126 11.90529 19254 ft 408 kts 263°
2026-05-05 17:01 51.69854 11.85907 20056 ft 411 kts 263°
2026-05-05 17:02 51.69597 11.81364 20828 ft 414 kts 263°
2026-05-05 17:02 51.69344 11.76715 21581 ft 418 kts 263°
2026-05-05 17:02 51.69097 11.72007 22239 ft 425 kts 263°
2026-05-05 17:02 51.68848 11.67175 22939 ft 430 kts 263°
2026-05-05 17:03 51.68599 11.62344 23608 ft 434 kts 263°
2026-05-05 17:03 51.68352 11.57542 24240 ft 437 kts 263°
2026-05-05 17:03 51.68098 11.52656 24907 ft 439 kts 263°
2026-05-05 17:03 51.67841 11.47746 25550 ft 441 kts 262°
2026-05-05 17:04 51.67580 11.42802 26162 ft 444 kts 262°
2026-05-05 17:04 51.67314 11.37824 26751 ft 447 kts 262°
2026-05-05 17:04 51.66926 11.32878 27205 ft 446 kts 254°
2026-05-05 17:04 51.65735 11.28270 27623 ft 448 kts 237°
2026-05-05 17:05 51.63819 11.24315 28214 ft 449 kts 225°
2026-05-05 17:05 51.61389 11.21192 28811 ft 450 kts 213°
2026-05-05 17:05 51.58715 11.18552 29368 ft 452 kts 212°
2026-05-05 17:05 51.56056 11.15830 29884 ft 453 kts 213°
2026-05-05 17:06 51.53568 11.12765 30325 ft 452 kts 226°
2026-05-05 17:06 51.51751 11.08692 30906 ft 451 kts 241°
2026-05-05 17:06 51.50626 11.03979 31427 ft 455 kts 252°
2026-05-05 17:06 51.50009 10.98986 31953 ft 458 kts 261°
2026-05-05 17:07 51.50097 10.93861 32491 ft 464 kts 275°
2026-05-05 17:07 51.50729 10.88796 33044 ft 463 kts 278°
2026-05-05 17:07 51.51406 10.83745 33595 ft 462 kts 277°
2026-05-05 17:07 51.52051 10.78705 34086 ft 460 kts 277°
2026-05-05 17:08 51.52654 10.73669 34503 ft 458 kts 276°
2026-05-05 17:08 51.53229 10.68636 34909 ft 458 kts 276°
2026-05-05 17:08 51.53792 10.63622 35328 ft 457 kts 276°
2026-05-05 17:08 51.54353 10.58587 35618 ft 459 kts 276°
2026-05-05 17:09 51.54914 10.53517 35783 ft 464 kts 276°
2026-05-05 17:09 51.55478 10.48403 35830 ft 464 kts 276°
2026-05-05 17:09 51.56597 10.38263 35831 ft 458 kts 275°
2026-05-05 17:10 51.57697 10.28201 35827 ft 456 kts 275°
2026-05-05 17:10 51.58785 10.18154 35830 ft 455 kts 275°
2026-05-05 17:11 51.59860 10.08145 35836 ft 456 kts 275°
2026-05-05 17:11 51.60930 9.98091 35833 ft 456 kts 275°
2026-05-05 17:12 51.61995 9.88016 35832 ft 457 kts 275°
2026-05-05 17:12 51.63053 9.77929 35824 ft 458 kts 275°
2026-05-05 17:13 51.64181 9.67821 35833 ft 459 kts 276°
2026-05-05 17:13 51.65388 9.57714 35817 ft 461 kts 276°
2026-05-05 17:14 51.66581 9.47641 35825 ft 461 kts 276°
2026-05-05 17:14 51.67759 9.37523 35813 ft 459 kts 276°
2026-05-05 17:15 51.68917 9.27429 35818 ft 457 kts 276°
2026-05-05 17:15 51.70059 9.17383 35825 ft 455 kts 276°
2026-05-05 17:16 51.71191 9.07343 35825 ft 455 kts 276°
2026-05-05 17:16 51.72312 8.97326 35825 ft 454 kts 276°
2026-05-05 17:17 51.73427 8.87288 35835 ft 455 kts 276°
2026-05-05 17:17 51.74533 8.77243 35831 ft 455 kts 276°
2026-05-05 17:18 51.75634 8.67157 35835 ft 457 kts 275°
2026-05-05 17:18 51.76729 8.57049 35831 ft 458 kts 275°
2026-05-05 17:19 51.77819 8.46902 35840 ft 459 kts 275°
2026-05-05 17:19 51.78901 8.36748 35848 ft 459 kts 275°
2026-05-05 17:20 51.79976 8.26569 35859 ft 459 kts 275°
2026-05-05 17:20 51.81042 8.16392 35854 ft 460 kts 275°
2026-05-05 17:21 51.82100 8.06189 35844 ft 460 kts 275°
2026-05-05 17:22 51.83670 7.90892 35844 ft 460 kts 275°
2026-05-05 17:22 51.84708 7.80682 35850 ft 460 kts 275°
2026-05-05 17:23 51.85650 7.70470 35846 ft 458 kts 270°
2026-05-05 17:23 51.85731 7.60239 35853 ft 454 kts 265°
2026-05-05 17:24 51.85649 7.50030 35861 ft 455 kts 265°
2026-05-05 17:24 51.85595 7.39790 35863 ft 455 kts 265°
2026-05-05 17:25 51.85549 7.29551 35871 ft 456 kts 265°
2026-05-05 17:25 51.85494 7.19282 35861 ft 457 kts 266°
2026-05-05 17:26 51.85529 7.08983 35863 ft 457 kts 266°
2026-05-05 17:26 51.85594 6.98695 35864 ft 458 kts 266°
2026-05-05 17:27 51.85640 6.88410 35877 ft 458 kts 266°
2026-05-05 17:27 51.85667 6.78101 35866 ft 459 kts 266°
2026-05-05 17:28 51.85684 6.67853 35867 ft 458 kts 266°
2026-05-05 17:28 51.85693 6.57546 35867 ft 459 kts 266°
2026-05-05 17:29 51.85691 6.47199 35877 ft 461 kts 266°
2026-05-05 17:29 51.85681 6.36829 35882 ft 462 kts 266°
2026-05-05 17:30 51.85663 6.26415 35885 ft 463 kts 266°
2026-05-05 17:30 51.85636 6.15987 35874 ft 464 kts 266°
2026-05-05 17:31 51.85600 6.05530 35874 ft 465 kts 266°
2026-05-05 17:31 51.85655 5.95074 35887 ft 465 kts 267°
2026-05-05 17:32 51.85748 5.86369 35886 ft 465 kts 267°
2026-05-05 17:32 51.85849 5.75908 35883 ft 465 kts 267°
2026-05-05 17:33 51.85927 5.65443 35884 ft 465 kts 267°
2026-05-05 17:33 51.85990 5.54999 35874 ft 464 kts 267°
2026-05-05 17:34 51.86042 5.44552 35875 ft 464 kts 267°
2026-05-05 17:34 51.86084 5.34128 35886 ft 464 kts 267°
2026-05-05 17:35 51.86118 5.23683 35881 ft 464 kts 267°
2026-05-05 17:35 51.86143 5.13237 35880 ft 465 kts 267°
2026-05-05 17:36 51.86159 5.02764 35879 ft 465 kts 267°
2026-05-05 17:36 51.86166 4.92288 35879 ft 466 kts 267°
2026-05-05 17:37 51.86163 4.81793 35891 ft 467 kts 267°
2026-05-05 17:37 51.86151 4.71285 35885 ft 468 kts 267°
2026-05-05 17:38 51.86129 4.60738 35886 ft 469 kts 267°
2026-05-05 17:38 51.86098 4.50191 35886 ft 469 kts 266°
2026-05-05 17:39 51.86058 4.39619 35887 ft 470 kts 266°
2026-05-05 17:39 51.86008 4.29058 35886 ft 470 kts 266°
2026-05-05 17:40 51.85949 4.18488 35890 ft 469 kts 266°
2026-05-05 17:40 51.85880 4.07939 35887 ft 469 kts 266°
2026-05-05 17:41 51.85802 3.97461 35895 ft 468 kts 266°
2026-05-05 17:41 51.85714 3.86863 35906 ft 468 kts 266°
2026-05-05 17:42 51.85618 3.76403 35898 ft 468 kts 266°
2026-05-05 17:42 51.85512 3.65891 35902 ft 468 kts 266°
2026-05-05 17:43 51.85396 3.55367 35899 ft 468 kts 266°
2026-05-05 17:43 51.85271 3.44785 35904 ft 468 kts 266°
2026-05-05 17:44 51.85138 3.34334 35913 ft 468 kts 265°
2026-05-05 17:44 51.84996 3.23817 35921 ft 468 kts 265°
2026-05-05 17:45 51.84705 3.13310 35918 ft 466 kts 261°
2026-05-05 17:45 51.84022 3.02965 35926 ft 466 kts 261°
2026-05-05 17:46 51.83316 2.92537 35926 ft 466 kts 261°
2026-05-05 17:46 51.82627 2.82115 35928 ft 467 kts 261°
2026-05-05 17:47 51.81935 2.71674 35931 ft 467 kts 261°
2026-05-05 17:47 51.81230 2.61254 35928 ft 467 kts 261°
2026-05-05 17:48 51.80508 2.50826 35931 ft 467 kts 261°
2026-05-05 17:48 51.79779 2.40418 35948 ft 467 kts 261°
2026-05-05 17:49 51.79043 2.29991 35937 ft 467 kts 261°
2026-05-05 17:49 51.78308 2.19569 35922 ft 468 kts 262°
2026-05-05 17:50 51.77693 2.09166 35935 ft 469 kts 262°
2026-05-05 17:50 51.77096 1.98686 35930 ft 469 kts 262°
2026-05-05 17:51 51.76470 1.88182 35949 ft 470 kts 262°
2026-05-05 17:51 51.75826 1.77658 35939 ft 470 kts 262°
2026-05-05 17:52 51.75175 1.67156 35942 ft 470 kts 262°
2026-05-05 17:52 51.74510 1.56655 35942 ft 470 kts 262°
2026-05-05 17:53 51.73828 1.46163 35949 ft 470 kts 262°
2026-05-05 17:53 51.73138 1.35682 35952 ft 470 kts 262°
2026-05-05 17:54 51.72441 1.25204 35946 ft 469 kts 262°
2026-05-05 17:54 51.71739 1.14746 35949 ft 469 kts 262°
2026-05-05 17:55 51.71030 1.04291 35951 ft 469 kts 262°
2026-05-05 17:55 51.70329 0.93861 35955 ft 468 kts 262°
2026-05-05 17:56 51.69599 0.83422 35935 ft 468 kts 262°
2026-05-05 17:56 51.68865 0.73016 35880 ft 469 kts 261°
2026-05-05 17:56 51.68465 0.67736 35046 ft 479 kts 261°
2026-05-05 17:57 51.68074 0.62409 34272 ft 478 kts 262°
2026-05-05 17:57 51.67701 0.57102 33494 ft 476 kts 262°
2026-05-05 17:57 51.67331 0.51821 32876 ft 469 kts 262°
2026-05-05 17:57 51.66962 0.46642 32310 ft 462 kts 262°
2026-05-05 17:58 51.66593 0.41533 31740 ft 456 kts 261°
2026-05-05 17:58 51.66216 0.36485 31185 ft 452 kts 261°
2026-05-05 17:58 51.65839 0.31490 30639 ft 447 kts 261°
2026-05-05 17:58 51.65464 0.26542 30101 ft 443 kts 261°
2026-05-05 17:59 51.65111 0.21646 29486 ft 439 kts 264°
2026-05-05 17:59 51.65155 0.16756 28918 ft 436 kts 275°
2026-05-05 17:59 51.65704 0.11976 28390 ft 433 kts 283°
2026-05-05 17:59 51.66672 0.07409 27859 ft 430 kts 292°
2026-05-05 18:00 51.67920 0.03058 27338 ft 426 kts 293°
2026-05-05 18:00 51.69174 -0.01239 26863 ft 422 kts 293°
2026-05-05 18:00 51.70411 -0.05507 26354 ft 418 kts 293°
2026-05-05 18:00 51.71607 -0.09689 25863 ft 415 kts 293°
2026-05-05 18:01 51.72800 -0.13906 25374 ft 412 kts 293°
2026-05-05 18:01 51.73977 -0.18100 24871 ft 409 kts 293°
2026-05-05 18:01 51.75138 -0.22255 24381 ft 406 kts 293°
2026-05-05 18:01 51.76290 -0.26386 23896 ft 403 kts 293°
2026-05-05 18:02 51.77437 -0.30502 23375 ft 401 kts 293°
2026-05-05 18:02 51.78576 -0.34595 22736 ft 398 kts 293°
2026-05-05 18:02 51.79709 -0.38635 22221 ft 391 kts 296°
2026-05-05 18:02 51.81248 -0.42205 21778 ft 387 kts 314°
2026-05-05 18:03 51.83372 -0.44811 21460 ft 381 kts 327°
2026-05-05 18:03 51.85668 -0.47002 21127 ft 386 kts 328°
2026-05-05 18:03 51.87993 -0.49209 20795 ft 390 kts 328°
2026-05-05 18:03 51.90337 -0.51445 20426 ft 391 kts 328°
2026-05-05 18:04 51.92670 -0.53688 20095 ft 389 kts 328°
2026-05-05 18:04 51.94988 -0.55932 19749 ft 387 kts 327°
2026-05-05 18:04 51.97284 -0.58168 19405 ft 385 kts 328°
2026-05-05 18:04 51.99575 -0.60408 19070 ft 383 kts 328°
2026-05-05 18:05 52.01855 -0.62644 18735 ft 382 kts 328°
2026-05-05 18:05 52.04126 -0.64873 18390 ft 381 kts 328°
2026-05-05 18:05 52.06388 -0.67098 18050 ft 379 kts 327°
2026-05-05 18:05 52.08633 -0.69307 17679 ft 377 kts 327°
2026-05-05 18:06 52.10870 -0.71511 17333 ft 374 kts 327°
2026-05-05 18:06 52.12342 -0.72963 17106 ft 373 kts 328°
2026-05-05 18:06 52.15293 -0.75879 16675 ft 369 kts 328°
2026-05-05 18:06 52.17475 -0.78037 16338 ft 366 kts 327°
2026-05-05 18:07 52.19645 -0.80186 16011 ft 363 kts 327°
2026-05-05 18:07 52.21798 -0.82319 15702 ft 360 kts 327°
2026-05-05 18:07 52.23934 -0.84439 15375 ft 358 kts 327°
2026-05-05 18:07 52.26048 -0.86537 15069 ft 355 kts 327°
2026-05-05 18:08 52.28156 -0.88623 14759 ft 353 kts 327°
2026-05-05 18:08 52.30251 -0.90696 14440 ft 351 kts 327°
2026-05-05 18:08 52.32304 -0.92731 14124 ft 349 kts 327°
2026-05-05 18:08 52.34395 -0.94806 13837 ft 346 kts 327°
2026-05-05 18:09 52.36450 -0.96848 13500 ft 344 kts 327°
2026-05-05 18:09 52.38492 -0.98878 13173 ft 341 kts 328°
2026-05-05 18:09 52.40639 -1.00397 12842 ft 339 kts 347°
2026-05-05 18:09 52.43007 -1.00544 12555 ft 347 kts
2026-05-05 18:10 52.45364 -0.99622 12244 ft 348 kts 14°
2026-05-05 18:10 52.47693 -0.98535 11944 ft 347 kts 13°
2026-05-05 18:10 52.50012 -0.97462 11637 ft 345 kts 13°
2026-05-05 18:10 52.52291 -0.96434 11341 ft 343 kts 13°
2026-05-05 18:11 52.54605 -0.95405 11021 ft 337 kts 12°
2026-05-05 18:11 52.56816 -0.94429 10723 ft 330 kts 12°
2026-05-05 18:11 52.59005 -0.93742 10404 ft 311 kts 356°
2026-05-05 18:11 52.61003 -0.94692 10150 ft 295 kts 324°
2026-05-05 18:12 52.62286 -0.97161 9945 ft 283 kts 292°
2026-05-05 18:12 52.62481 -1.00280 9751 ft 274 kts 258°
2026-05-05 18:12 52.61565 -1.02962 9502 ft 272 kts 224°
2026-05-05 18:12 52.59998 -1.04683 9321 ft 272 kts 210°
2026-05-05 18:13 52.58229 -1.05783 9051 ft 275 kts 192°
2026-05-05 18:13 52.56311 -1.06085 8837 ft 279 kts 185°
2026-05-05 18:13 52.54362 -1.06264 8588 ft 282 kts 186°
2026-05-05 18:13 52.52417 -1.06488 8369 ft 278 kts 186°
2026-05-05 18:14 52.50515 -1.06742 8103 ft 271 kts 187°
2026-05-05 18:14 52.48685 -1.06888 7993 ft 256 kts 174°
2026-05-05 18:14 52.47056 -1.05855 7992 ft 254 kts 142°
2026-05-05 18:14 52.45929 -1.03657 7994 ft 255 kts 115°
2026-05-05 18:15 52.45509 -1.00860 7985 ft 255 kts 88°
2026-05-05 18:15 52.45894 -0.98072 7973 ft 252 kts 59°
2026-05-05 18:15 52.47005 -0.95923 7989 ft 247 kts 32°
2026-05-05 18:15 52.48540 -0.94742 7971 ft 242 kts
2026-05-05 18:16 52.50140 -0.95127 7989 ft 232 kts 329°
2026-05-05 18:16 52.51514 -0.96497 7994 ft 232 kts 330°
2026-05-05 18:16 52.53001 -0.97621 7994 ft 239 kts 337°
2026-05-05 18:16 52.54572 -0.98558 7986 ft 240 kts 339°
2026-05-05 18:17 52.56158 -0.99398 7984 ft 238 kts 341°
2026-05-05 18:17 52.57737 -1.00196 7980 ft 236 kts 341°
2026-05-05 18:17 52.59300 -1.00972 7974 ft 235 kts 342°
2026-05-05 18:17 52.60894 -1.01757 7649 ft 244 kts 342°
2026-05-05 18:18 52.62526 -1.02555 7324 ft 244 kts 343°
2026-05-05 18:18 52.64141 -1.03325 7000 ft 238 kts 347°
2026-05-05 18:18 52.65774 -1.03553 6638 ft 234 kts 359°
2026-05-05 18:18 52.67379 -1.03520 6279 ft 233 kts
2026-05-05 18:19 52.68471 -1.03502 6025 ft 233 kts
2026-05-05 18:19 52.70607 -1.03497 5538 ft 231 kts 360°
2026-05-05 18:19 52.72208 -1.03509 5178 ft 229 kts 360°
2026-05-05 18:19 52.73793 -1.03428 4821 ft 228 kts
2026-05-05 18:20 52.75365 -1.03181 4470 ft 226 kts
2026-05-05 18:20 52.76418 -1.03011 4230 ft 224 kts
2026-05-05 18:20 52.77959 -1.02766 3935 ft 219 kts
2026-05-05 18:20 52.79449 -1.02534 3679 ft 211 kts
2026-05-05 18:21 52.80901 -1.02327 3490 ft 207 kts
2026-05-05 18:21 52.82245 -1.02904 3291 ft 201 kts 328°
2026-05-05 18:21 52.83056 -1.04698 3099 ft 201 kts 292°
2026-05-05 18:21 52.83308 -1.06954 2878 ft 201 kts 280°
2026-05-05 18:22 52.83440 -1.09242 2642 ft 198 kts 279°
2026-05-05 18:22 52.83500 -1.11492 2431 ft 195 kts 274°
2026-05-05 18:22 52.83469 -1.13674 2228 ft 185 kts 272°
2026-05-05 18:22 52.83426 -1.15772 2094 ft 181 kts 272°
2026-05-05 18:23 52.83387 -1.17877 1944 ft 187 kts 273°
2026-05-05 18:23 52.83346 -1.19992 1686 ft 177 kts 273°
2026-05-05 18:23 52.83307 -1.21896 1432 ft 157 kts 274°
2026-05-05 18:23 52.83278 -1.23663 1235 ft 154 kts 272°
2026-05-05 18:24 52.83238 -1.25433 1020 ft 154 kts 271°
2026-05-05 18:24 52.83172 -1.27200 792 ft 153 kts 273°
2026-05-05 18:24 52.83165 -1.28942 633 ft 151 kts 272°
2026-05-05 18:24 52.83129 -1.30691 368 ft 150 kts 274°
2026-05-05 18:25 52.83112 -1.32295 307 ft 126 kts 268°
2026-05-05 18:25 52.83094 -1.33180 314 ft 102 kts 268°
2026-05-05 18:25 52.83073 -1.34370 307 ft 55 kts 268°
2026-05-05 18:25 52.83065 -1.34795 307 ft 19 kts 268°
2026-05-05 18:26 52.83064 -1.34856 308 ft 2 kts 268°
2026-05-05 18:26 52.83049 -1.34913 312 ft 7 kts 225°
2026-05-05 18:26 52.83000 -1.34934 311 ft 8 kts 182°
2026-05-05 18:26 52.82947 -1.34936 310 ft 8 kts 180°
2026-05-05 18:27 52.82906 -1.34971 312 ft 8 kts 242°
2026-05-05 18:27 52.82897 -1.35074 308 ft 10 kts 266°
2026-05-05 18:27 52.82894 -1.35177 308 ft 7 kts 267°
2026-05-05 18:27 52.82876 -1.35250 309 ft 8 kts 217°
2026-05-05 18:28 52.82779 -1.35269 308 ft 5 kts 178°
2026-05-05 18:28 52.82754 -1.35268 308 ft 3 kts 178°
2026-05-05 18:28 52.82741 -1.35268 308 ft 0 kts 178°